Location: Kalberh�ni
(46.4610°N, 7.2453°E)
Time: 21:06:06
(UTC+00:00)

Cosmos 2333 Rocket - Pass Details

Date: 29 October 2021
Orbit: 837 x 865 km, 70.8° (Epoch: 30 November)

Event Time Altitude Azimuth Distance (km) Brightness Sun altitude
Rises 19:03:24 0° 232° (SW) 3,394 5.9 -28.5°
Reaches altitude 10° 19:06:01 10° 240° (WSW) 2,467 5.2 -29.0°
Maximum altitude 19:11:14 37° 307° (NW) 1,307 3.5 -29.8°
Enters shadow 19:15:27 15° 9° (N) 2,144 4.3 -30.6°
